Regional Weather Roundup
Issued by NWS

Home | Current Version | Previous Version | Graphics & Text | Print | Product List | Glossary On
Versions: 1 2 3 4 5 6 7 8 9 10 11 12 13 14 15 16 17 18 19 20 21 22 23 24 25 26 27 28 29 30 31 32 33 34 35 36 37 38 39 40 41 42 43 44 45 46 47 48 49 50
000
ASUS43 KDTX 250401
RWRMI
MICHIGAN HOURLY REGIONAL WEATHER ROUNDUP
NATIONAL WEATHER SERVICE DETROIT/PONTIAC MI
1200 AM EDT WED APR 25 2018

NOTE: "FAIR" INDICATES FEW OR NO CLOUDS BELOW 12,000 FEET WITH NO
SIGNIFICANT WEATHER AND/OR OBSTRUCTION TO VISIBILITY.

MIZ047>049-052>055-059>063-066>070-074>076-081>083-250500-
SOUTHEAST LOWER MICHIGAN

CITY           SKY/WX    TMP DP  RH WIND       PRES   REMARKS
ADRIAN         CLOUDY    50  50 100 NE7       29.96F FOG
ALMA           DRIZZLE   52  52 100 NW8       29.99S
ANN ARBOR      CLOUDY    51  50  96 N6        29.95F FOG
BAD AXE        LGT RAIN  52  47  83 SE3       29.99F
CARO           MIX PCPN  50  49  93 CALM      29.98F
DETROIT CITY   CLOUDY    49  48  97 E7        29.97F FOG
DETROIT        CLOUDY    52  49  89 NE6       29.96F FOG
FLINT          LGT RAIN  50  49  96 E5        29.98F
GROSSE ILE     DRIZZLE   50  49  98 NE5       29.95F
HILLSDALE      CLOUDY    50  48  93 CALM      29.96S FOG
HOWELL         CLOUDY    50  50  99 CALM      29.97S FOG

CITY           SKY/WX    TMP DP  RH WIND       PRES   REMARKS
JACKSON        CLOUDY    52  51  97 N5        29.96F FOG
LAMBERTVILLE   DRIZZLE   50  47  92 E7        29.95S
LANSING        CLOUDY    51  51 100 NW5       29.98R FOG
LAPEER         RAIN      50  49  97 CALM      29.98F
MASON          CLOUDY    53  50  88 CALM      29.96F FOG
MONROE         CLOUDY    50  48  93 NE7       29.94F FOG
PONTIAC        DRIZZLE   50  50 100 E3        29.96F FOG
PORT HOPE        N/A     44  43  96 E6        29.99F
PORT HURON     DRIZZLE   50  48  93 E5        29.98F
TRI CITIES     CLOUDY    49  47  93 N5        29.99F FOG
MIDLAND        DRIZZLE   50  49  99 CALM      29.99S
TROY           CLOUDY    51  50  95 E5        29.99F
SAGINAW HB     CLOUDY    50  46  87 E3        29.97F FOG
$$
MIZ043>046-050>051-056>058-064>065-071>073-077>080-250500-
SOUTHWEST LOWER MICHIGAN

CITY           SKY/WX    TMP DP  RH WIND       PRES   REMARKS
BATTLE CREEK   LGT RAIN  52  51  97 CALM      29.98S FOG
BENTON HARBOR  FAIR      46  41  82 CALM      29.99F
BIG RAPIDS     CLOUDY    50  46  87 N7        30.01R
COLDWATER      CLOUDY    51  51 100 CALM      29.97S
FREMONT        MOCLDY    48  45  90 NW6       30.00S
HOLLAND        CLOUDY    56  50  80 N6        30.00F
GRAND RAPIDS   LGT RAIN  53  52  96 N6        29.99F FOG
IONIA          CLOUDY    52  52  99 N3        29.98F
KALAMAZOO      CLOUDY    54  52  93 CALM      29.98S FOG
LUDINGTON      CLOUDY    46  37  69 N8        30.06S
MARSHALL       CLOUDY    51  51  98 CALM      29.97S
MOUNT PLEASANT CLOUDY    52  52  99 CALM      29.99S
MUSKEGON       FAIR      48  45  89 NW5       30.01S
SOUTH HAVEN    MOCLDY    48  44  84 CALM      29.99S
$$
MIZ016>042-250500-
NORTHERN LOWER MICHIGAN

CITY           SKY/WX    TMP DP  RH WIND       PRES   REMARKS
ALPENA         LGT RAIN  43  40  89 W5        30.03S
BEAVER ISLAND  CLOUDY    42  31  65 NW5       30.10S
BELLAIRE       CLOUDY    46  28  50 N6        30.08S
CADILLAC       LGT RAIN  41  37  86 N8G16     30.05R
CHARLEVOIX     CLOUDY    41  31  68 NW6       30.12S
FRANKFORT      FAIR      44  31  60 N6        30.10S
GAYLORD        CLOUDY    42  32  67 CALM      30.04F
HARBOR SPRINGS CLOUDY    45  27  49 NW3       30.07F
HOUGHTON LAKE  CLOUDY    47  44  90 N9        30.02S
MANISTEE       CLOUDY    47  31  53 N8G16     30.07F
OSCODA         RAIN      46  45  95 N3        30.01S
PELLSTON       CLOUDY    44  29  55 NW9       30.07S
ROGERS CITY    CLOUDY    43  33  68 W7        30.05S
TRAVERSE CITY  CLOUDY    46  30  53 N13G20    30.09R
$$
MIZ007>008-015-250500-
EASTERN UPPER MICHIGAN

CITY           SKY/WX    TMP DP  RH WIND       PRES   REMARKS
KINROSS        CLOUDY    40  30  67 NW18G24   30.05F WCI  31
MACKINAC ISLAN CLOUDY    43  28  56 N7        30.06S
NEWBERRY       LGT RAIN  37  36  94 NW8       30.10S WCI  31
S. S. MARIE    CLOUDY    42  30  62 NW9       30.06R
MUNISING         N/A     36  31  82 NW9       30.15S WCI  29
$$
MIZ004>006-011>014-085-250500-
CENTRAL UPPER MICHIGAN

CITY           SKY/WX    TMP DP  RH WIND       PRES   REMARKS
ESCANABA       LGT RAIN  42  35  76 N6        30.15F
MENOMINEE      LGT RAIN  45  33  63 N12       30.15S
SAWYER-GWINN   FAIR      37  28  71 N17       30.16F WCI  27
$$
MIZ001>003-009>011-084-250500-
WESTERN UPPER MICHIGAN

CITY           SKY/WX    TMP DP  RH WIND       PRES   REMARKS
IRON MOUNTAIN  FAIR      38  36  92 N6        30.15S WCI  33
HOUGHTON       FAIR      37  25  61 N15       30.20S WCI  28
COPPER HARBOR    N/A     36  29  75 N8        30.22R WCI  30
IRONWOOD       FAIR      36  28  73 N7        30.23R WCI  30
$$

ABBREVIATIONS USED IN REMARKS
   TC - TEMPERATURE IN CELSIUS
  WCI - WIND CHILL INDEX
   HX - HEAT INDEX
  VSB - VISIBILITY




USA.gov is the U.S. government's official web portal to all federal, state and local government web resources and services.